Location: Newark
(45.2672°N, 1.7656°E)
Time: 16:10:38
(UTC+00:00)

N. Korean satellite - Visible Passes

Search period start: 17 October 2019 00:00
Search period end: 27 October 2019 00:00
Orbit: 455 x 508 km, 97.2° (Epoch: 16 October)

Date Brightness Start Highest point End Pass type
(mag) Time Alt. Az. Time Alt. Az. Time Alt. Az.
18 Oct 7.4 05:39:45 10° NNE 05:43:18 57° E 05:46:54 10° S visible
18 Oct 9.8 17:51:37 10° SW 17:54:03 18° W 17:56:30 10° NW visible
19 Oct 9.0 05:14:47 10° NE 05:17:56 28° E 05:21:07 10° SSE visible
20 Oct 10.1 04:50:23 10° NE 04:52:29 15° E 04:54:35 10° SE visible
21 Oct 10.4 18:10:32 10° WSW 18:11:40 11° W 18:12:49 10° WNW visible
22 Oct 7.9 05:31:59 10° NNE 05:35:30 46° E 05:39:02 10° S visible
22 Oct 9.4 17:43:25 10° SSW 17:46:10 22° W 17:48:56 10° NW visible
23 Oct 9.4 05:07:07 10° NE 05:10:05 23° E 05:13:04 10° SSE visible
24 Oct 10.3 04:43:04 10° ENE 04:44:35 12° E 04:46:07 10° ESE visible
25 Oct 6.8 05:49:19 10° NNE 05:52:59 79° E 05:56:41 10° S visible
25 Oct 10.1 18:01:50 10° SW 18:03:44 14° W 18:05:39 10° WNW visible
26 Oct 8.4 05:24:11 10° NNE 05:27:38 37° E 05:31:05 10° SSE visible
26 Oct 9.0 17:35:14 10° SSW 17:38:13 27° W 17:41:17 10° NW visible
